Notices

What's New in latest Release from April 7th, 2021:

- Updated Glossary, including Speed of Maximum Gust, and Total Hourly Precipitation

- Updated national and regional climate services offices contacts and prices information

- Addition of station inventory lists for 1981-2010, 1971-2000, and 1961-1990 Normals.

If you haven't already, please take our survey and provide feedback about our website: https://eccc.sondage-survey.ca/f/LanguageSelection.aspx?s=442ca660-fcf1-47c0-95a9-59707d6fd709

Hourly Data Report for January 21, 2020

SATURNA ISLAND CS
BRITISH COLUMBIA
Current Station Operator: ECCC - MSC

48°47'02.067" N
123°02'41.082" W
24.40 m
1017101
71473
WEZ

Download Data

Hourly Data (January 2020)
Hourly Data Report for January 21, 2020
TIME
LST
Temp Definition
°C
Dew Point Definition
°C
Rel Hum Definition
%
Precip. Amount Definition
mm

Wind Dir Definition
10's deg

Wind Spd Definition
km/h
Visibility Definition
km
Stn Press Definition
kPa
Hmdx Definition


Wind Chill Definition


Weather Definition


00:00 8.8 5.5 80 0.0 12 7   100.05     LegendNANA
01:00 8.0 5.1 82 0.0 8 16   99.98     LegendNANA
02:00 8.0 5.1 82 0.0 11 25   99.90     LegendNANA
03:00 8.9 5.0 77 0.0 12 28   99.80     LegendNANA
04:00 10.0 4.1 67 0.0 14 36   99.71     LegendNANA
05:00 9.7 5.5 75 0.0 16 46   99.65     LegendNANA
06:00 9.5 5.7 77 0.0 15 48   99.60     LegendNANA
07:00 9.0 5.6 79 0.0 18 52   99.80     LegendNANA
08:00 8.4 5.7 83 0.0 17 45   99.86     LegendNANA
09:00 8.4 5.7 83 0.0 18 47   99.91     LegendNANA
10:00 9.0 5.4 78 0.0 18 46   99.99     LegendNANA
11:00 8.9 5.0 77 0.0 17 54   100.00     LegendNANA
12:00 8.9 4.8 75 0.0 17 55   99.95     LegendNANA
13:00 8.0 5.1 82 0.2 19 53   99.99     LegendNANA
14:00 9.0 5.3 78 0.4 18 39   100.00     LegendNANA
15:00 7.7 4.6 81 0.0 18 39   100.08     LegendNANA
16:00 7.7 5.1 84 0.2 17 44   100.12     LegendNANA
17:00 7.5 5.4 87 0.0 16 39   100.12     LegendNANA
18:00 7.6 5.2 85 0.0 16 44   100.12     LegendNANA
19:00 8.1 5.1 82 0.0 19 53   100.10     LegendNANA
20:00 8.2 5.0 81 0.0 20 48   100.28     LegendNANA
21:00 7.4 5.5 88 0.2 20 44   100.39     LegendNANA
22:00 7.0 5.5 90 0.0 18 34   100.53     LegendNANA
23:00 7.1 5.6 90 0.0 18 32   100.62     LegendNANA

Notes on Data Quality.

Legend

  • E = Estimated
  • M = Missing
  • NA = Not Available*
  • [empty] = Indicates an unobserved value
Date modified: